Wind_Speed
9 9 7 8 9 10 9 7 5 5 6 7 8 9 10 14 15 10 4 2 2 6 10 6 9 13 12 13 14 15 13 9 6 3 3 3 6 10 11 14 16 14 14 14 13 12 12 13 13 13 13 13 13 12 12 12 12 12 12 13 13 13 13 13 13 12 12 12 12 12 12 12 11 9 9 11 12 11 12 14 13 12 12 12 12 11 10 10 9 8 6 8 8 8 9 9 8
10 9 8 9 11 9 5 6 6 5 7 8 9 9 12 10 6 5 7 8 6 8 9 8 12 15 17 17 12 13 12 10 8 6 5 8 9 9 11 14 15 14 14 14 13 13 13 13 13 14 13 13 12 12 12 12 12 12 13 13 13 13 14 13 13 12 12 12 11 11 10 11 11 10 8 9 10 10 12 14 12 12 12 12 13 11 11 11 9 8 7 7 7 6 7 7 5
12 11 10 10 10 8 5 5 6 7 7 8 8 5 7 3 7 11 13 12 9 8 7 8 13 13 13 15 11 8 5 5 9 8 6 8 7 8 12 13 14 14 14 14 13 13 13 13 14 13 13 12 12 12 12 12 12 12 13 13 14 14 14 14 13 12 12 11 11 10 9 9 10 10 9 8 8 10 12 13 11 10 10 10 11 12 12 12 10 9 9 8 7 6 6 6 5
13 14 12 11 7 6 5 6 7 8 7 9 5 7 12 10 11 11 11 8 6 4 4 7 11 13 13 13 6 5 6 4 6 6 4 5 7 10 14 13 13 14 14 13 13 13 14 13 13 13 12 12 12 12 12 12 12 13 13 14 14 15 14 14 13 12 12 12 12 10 8 8 9 9 9 8 7 10 11 12 11 10 9 8 9 10 11 11 10 10 10 8 7 5 5 7 6
12 14 14 11 5 5 5 6 6 8 8 10 4 9 11 12 12 10 9 7 4 3 7 11 9 9 13 10 2 4 4 3 6 6 6 6 9 13 13 13 13 13 13 13 13 13 13 12 12 11 11 11 12 12 12 12 12 13 13 14 15 16 16 14 13 12 12 12 12 10 9 8 8 8 8 8 8 11 12 12 11 10 10 9 9 10 10 10 10 10 11 10 9 7 6 8 7
12 13 13 11 6 5 5 6 6 10 8 4 2 8 9 11 9 6 6 5 4 7 15 15 9 9 9 8 6 5 2 3 7 6 6 8 12 13 13 12 12 12 13 13 12 12 11 10 10 10 10 10 11 11 11 12 13 13 13 15 16 17 17 15 13 12 12 12 11 10 9 9 8 8 8 8 9 11 12 12 11 11 10 9 9 10 11 11 10 11 11 11 10 9 8 8 7
13 10 8 8 6 5 6 8 7 9 2 7 7 8 7 9 7 5 4 2 3 10 19 14 8 11 6 2 6 7 5 5 6 6 10 13 14 13 13 12 12 13 13 13 12 12 10 9 10 10 10 10 10 11 11 12 13 13 14 16 16 17 17 15 12 12 13 12 10 9 9 10 9 8 8 8 10 12 12 12 11 11 10 9 9 9 10 10 10 11 11 12 11 9 9 8 8
15 8 4 7 5 5 7 8 8 8 1 11 9 10 8 7 7 4 4 4 5 11 15 9 7 11 4 2 5 5 7 9 10 13 16 15 13 12 13 12 12 13 13 13 12 11 10 10 10 9 9 10 11 11 12 12 13 13 15 17 17 18 16 13 12 13 13 12 10 9 10 10 9 9 8 9 11 11 11 12 11 11 10 9 9 9 10 10 10 11 11 11 10 9 9 9 8
14 8 5 6 5 6 7 8 8 9 2 12 12 10 6 6 6 3 3 5 7 12 12 6 6 9 6 8 7 3 6 10 13 15 14 13 13 13 13 12 12 13 12 12 11 11 10 10 10 9 9 10 11 12 12 12 13 14 17 18 17 16 15 13 12 13 13 12 11 10 10 10 9 9 8 9 11 11 10 10 10 10 10 9 9 9 10 10 10 11 10 9 9 9 8 8 8
8 7 5 5 6 6 7 8 5 5 2 10 10 9 7 4 3 4 3 4 9 10 8 7 10 11 9 9 5 1 3 8 11 11 12 12 13 12 12 11 11 11 10 10 11 10 10 11 10 9 10 11 12 12 12 12 13 15 18 17 15 15 14 13 13 13 13 12 11 10 10 9 9 8 9 10 11 11 11 9 9 9 9 9 9 8 9 9 9 10 9 9 10 9 8 6 6
5 5 6 5 6 6 7 9 4 2 6 9 8 8 9 4 3 4 3 6 12 7 1 3 9 12 10 9 3 4 8 9 10 11 12 12 12 11 12 11 10 10 10 10 10 9 9 10 11 10 10 11 13 13 12 12 14 15 18 17 14 14 14 13 13 13 13 13 12 10 9 9 8 8 9 11 11 11 11 10 9 9 9 9 9 8 9 9 9 9 9 10 10 8 7 6 6
6 4 6 5 6 5 7 9 5 2 8 12 10 9 5 2 7 5 4 8 11 6 0 4 5 7 8 8 3 8 12 11 10 12 12 12 12 11 11 10 10 10 10 10 9 9 8 9 9 9 11 12 13 12 11 13 14 14 17 18 15 14 13 13 13 13 13 13 13 11 9 9 8 9 9 10 10 11 11 10 10 10 10 10 9 8 8 9 10 10 9 9 8 7 6 6 7
3 4 5 7 8 6 8 9 6 3 5 9 5 6 9 6 5 2 9 11 7 5 5 5 5 4 6 7 4 8 11 11 12 13 13 12 12 11 11 10 10 10 9 10 9 9 9 9 8 8 10 11 11 12 12 12 13 13 16 17 14 14 12 11 13 12 11 13 14 12 10 10 9 9 9 10 10 10 11 11 11 11 10 10 10 9 9 9 10 11 11 9 8 7 7 6 7
3 5 5 7 8 6 9 9 5 3 3 7 4 1 6 8 7 8 12 10 7 7 5 5 5 5 6 7 5 7 9 12 14 13 13 13 12 11 11 10 10 9 9 9 9 10 10 10 8 8 8 7 7 9 11 11 11 10 12 15 12 12 11 8 11 12 12 11 12 11 10 10 10 10 10 10 10 11 11 11 12 11 10 10 10 10 10 11 12 11 11 11 10 8 9 8 6
4 4 5 7 6 7 9 6 3 1 3 5 2 3 5 7 10 11 11 9 5 7 4 5 6 4 4 3 5 7 11 15 15 14 13 13 12 11 11 10 10 9 9 8 9 10 9 9 9 9 8 6 7 8 9 9 8 6 8 11 10 13 12 8 9 11 12 9 9 10 9 9 9 9 9 10 11 12 11 11 12 12 10 10 10 11 12 13 13 12 12 12 10 9 11 9 5
5 4 5 5 5 9 7 4 3 2 3 2 2 2 3 4 12 11 7 7 5 6 5 6 6 4 3 2 7 11 15 15 14 14 13 13 11 10 10 10 9 8 8 9 9 9 9 9 9 8 7 7 7 7 7 7 6 4 5 9 10 14 14 11 10 11 11 9 8 8 7 6 6 7 8 9 10 11 12 12 12 13 11 9 10 11 11 12 11 11 10 10 9 9 9 7 6
6 4 5 3 3 9 7 6 5 4 6 5 4 4 4 6 13 8 4 8 7 5 5 5 4 3 3 5 11 15 15 14 13 13 12 13 10 9 9 8 9 7 8 9 9 9 10 9 9 8 7 7 6 5 7 8 7 4 2 7 8 11 13 12 13 13 12 11 9 8 7 4 4 6 7 6 6 8 11 13 13 12 12 11 12 10 10 10 9 10 9 9 10 10 8 6 7
4 3 4 4 3 7 4 7 5 8 6 6 7 8 5 5 9 3 2 9 7 5 3 5 7 4 5 10 14 14 13 11 11 11 10 11 9 7 7 7 8 7 8 9 8 9 9 9 8 7 6 6 4 4 7 8 9 5 1 4 6 8 11 12 13 13 13 13 11 10 8 5 4 4 6 5 4 7 8 11 13 12 11 12 13 10 10 10 9 10 11 11 11 10 9 8 10
3 2 4 5 5 6 5 8 4 9 5 10 11 2 6 8 11 6 3 5 5 6 2 4 10 6 7 12 13 12 11 9 8 8 9 8 6 6 6 7 7 7 9 9 8 8 8 8 8 7 6 4 3 5 8 8 8 7 6 5 7 9 11 12 12 12 12 12 12 11 9 9 8 3 5 5 4 9 7 9 13 12 11 11 12 11 11 12 10 11 12 12 11 11 10 12 12
2 1 4 5 6 6 7 7 6 11 8 14 5 6 4 8 8 7 7 8 6 7 4 4 9 9 10 11 11 10 9 8 7 7 8 8 6 6 7 7 7 8 10 9 9 8 8 8 8 7 5 4 4 6 8 7 7 9 10 8 9 10 12 13 10 11 11 12 13 13 10 9 9 5 5 6 6 8 9 10 11 12 12 10 12 11 12 15 11 10 12 12 13 13 11 13 14
2 2 4 6 5 6 9 2 10 12 7 10 9 6 6 6 6 7 9 9 5 6 5 5 9 10 11 11 10 9 9 9 8 7 8 8 6 7 7 7 8 9 10 10 9 8 8 8 7 7 6 5 5 7 8 7 7 9 10 9 9 10 13 13 10 12 13 14 12 10 11 8 8 8 7 7 7 8 9 11 11 11 11 11 13 11 11 13 11 11 13 14 16 15 14 13 15
3 5 6 5 1 5 9 2 10 12 8 6 7 4 6 5 6 7 6 5 4 5 6 7 9 10 11 11 10 9 9 8 8 9 8 8 7 7 8 8 7 8 10 10 9 9 9 8 7 6 7 7 6 7 7 8 7 8 10 10 10 11 13 13 13 14 14 15 12 9 13 11 8 9 8 6 7 9 10 11 12 12 11 11 14 12 10 10 10 12 13 14 14 15 15 13 13
3 5 4 5 5 8 6 6 7 9 9 5 4 6 6 6 6 5 5 6 5 7 9 10 9 10 11 10 9 8 7 6 7 9 9 8 8 7 8 7 7 10 12 10 9 9 8 7 7 6 7 7 6 6 7 8 7 7 9 9 10 12 12 12 13 14 15 16 12 11 15 15 12 9 8 7 7 9 10 11 11 12 12 12 14 12 12 10 9 14 16 15 14 13 15 14 13
2 4 5 10 13 10 4 9 7 7 8 6 7 7 7 7 6 4 5 7 8 9 10 10 9 10 11 10 9 8 7 8 8 9 9 8 8 6 6 5 7 12 12 9 9 8 7 7 7 7 7 6 6 7 8 9 8 8 8 9 10 11 11 12 13 14 16 16 11 11 13 15 14 11 9 8 7 8 9 11 10 10 11 12 14 12 12 12 9 15 16 16 14 10 11 11 10
3 7 9 9 8 7 8 10 8 7 6 7 8 9 8 7 7 5 7 8 9 10 10 11 11 12 11 10 11 10 9 9 8 9 8 7 8 7 6 6 9 11 10 9 8 7 7 8 8 8 7 7 7 8 9 8 7 8 9 10 11 12 12 13 13 15 16 14 12 13 12 12 12 13 12 8 6 6 7 10 10 10 10 11 14 13 13 13 11 13 10 10 12 9 9 9 10
8 10 8 7 9 9 8 9 9 7 5 5 7 9 8 8 8 8 8 9 10 11 12 13 13 14 13 10 11 11 9 9 8 8 8 8 8 8 7 7 9 10 9 9 8 7 7 8 8 8 7 7 7 8 8 7 7 7 9 10 10 12 13 12 12 14 15 13 13 14 13 11 10 11 11 10 8 6 5 8 10 10 10 11 13 12 13 13 12 12 9 9 11 11 12 13 14
5 6 8 9 9 9 8 10 10 8 6 4 5 7 8 7 6 7 8 10 11 12 14 14 12 12 13 10 10 10 10 9 9 8 7 8 7 7 7 7 9 11 9 9 9 7 7 8 8 8 8 7 8 8 7 7 7 7 8 8 8 12 12 11 10 13 15 12 11 12 13 11 10 10 10 8 7 8 7 7 10 11 9 11 12 11 12 12 11 11 11 11 11 12 15 16 16
6 6 10 10 11 10 9 10 9 8 7 6 5 6 8 6 4 8 11 12 12 13 14 14 12 10 12 12 10 9 9 10 10 7 6 6 6 6 6 5 9 10 9 10 9 8 8 8 8 8 8 7 7 7 7 6 6 6 6 7 7 9 9 8 9 12 15 13 11 10 12 11 10 11 12 10 8 9 10 9 11 12 10 10 11 10 12 13 12 12 11 12 12 12 15 15 14
4 5 8 11 11 11 11 9 8 7 9 12 7 4 6 6 8 12 13 14 14 13 14 15 12 10 11 12 10 8 9 11 11 8 6 8 9 8 7 7 9 9 9 10 9 8 7 7 8 8 8 7 7 7 6 6 6 6 6 6 8 8 7 8 8 12 15 14 14 12 13 12 10 10 12 12 11 7 9 12 10 9 11 11 11 12 13 14 13 13 12 12 11 11 12 14 13
1 3 3 7 7 10 13 14 14 10 12 17 8 3 4 6 12 15 13 15 15 13 13 13 11 9 10 10 9 9 9 10 11 11 9 9 11 10 9 9 8 9 11 10 9 8 7 7 7 7 7 7 7 6 6 6 6 6 6 7 7 8 8 9 9 12 14 13 14 14 14 13 11 11 10 10 11 8 8 13 11 8 11 12 12 15 15 14 14 14 13 12 11 10 10 12 14
3 6 3 3 2 7 12 13 16 11 14 21 12 2 5 9 15 17 15 15 15 14 13 12 12 10 9 8 9 9 9 9 11 14 12 11 12 11 11 9 7 10 12 10 9 8 7 7 6 7 6 6 6 6 6 7 7 6 6 7 7 8 8 8 9 12 14 12 13 14 13 13 12 12 11 9 11 12 9 9 10 9 10 11 13 15 15 14 14 14 14 12 12 12 11 11 12
6 4 4 5 4 8 10 9 12 12 13 18 12 3 8 12 15 17 15 15 15 14 12 11 12 11 11 9 8 8 8 10 11 12 12 12 13 11 11 10 8 11 11 10 10 8 8 7 6 7 6 6 6 6 6 7 7 7 6 7 7 7 7 7 10 12 13 12 13 13 13 13 13 12 11 10 10 11 9 8 10 12 13 13 12 13 15 15 14 14 13 13 13 13 11 10 10
5 4 4 5 4 8 9 7 9 12 12 15 10 3 8 11 14 16 14 15 14 12 12 12 11 11 11 9 9 8 8 10 11 11 11 13 14 12 11 11 9 11 11 11 10 8 8 7 6 7 5 6 5 5 6 6 7 6 6 7 7 7 7 7 9 11 13 13 13 13 13 14 14 13 12 11 10 10 9 10 11 14 16 15 14 14 14 13 14 14 13 13 13 12 12 12 10
5 5 7 6 5 7 7 7 8 12 10 10 8 3 9 13 13 14 14 14 13 12 12 12 10 10 10 9 9 9 8 9 8 10 13 13 13 13 12 11 10 10 11 11 10 8 8 7 6 6 5 5 4 5 5 6 6 5 6 6 6 7 7 7 8 11 13 13 14 13 14 14 14 14 13 12 11 11 11 11 12 14 16 15 15 15 14 13 13 14 14 13 13 13 14 14 12
5 6 6 3 5 6 6 8 9 10 10 7 9 6 11 14 13 13 13 13 12 11 11 10 10 10 9 9 9 9 9 9 8 10 15 13 12 13 12 12 10 10 11 10 10 9 8 8 7 6 5 4 4 4 3 4 6 6 6 6 6 7 7 7 8 11 11 12 12 12 12 14 14 14 14 14 13 13 12 12 12 13 14 13 14 15 14 13 12 12 13 13 14 15 15 15 14
3 3 3 1 3 4 7 9 8 10 8 4 9 9 11 13 12 12 12 11 10 10 10 9 10 9 8 8 8 10 9 9 9 11 16 13 11 13 12 12 11 10 11 11 10 9 8 8 7 6 5 4 3 3 3 4 6 6 6 6 6 6 7 8 8 9 9 10 10 10 10 12 14 15 14 14 14 13 13 14 13 13 12 12 13 15 15 14 14 13 11 12 14 15 16 17 15
2 4 5 3 2 4 9 9 8 6 2 2 8 11 11 12 12 11 11 10 9 10 10 9 10 8 8 8 8 10 9 9 12 13 16 15 13 13 12 12 11 10 11 11 10 9 8 8 7 6 5 4 3 4 5 5 6 5 6 6 6 6 7 7 8 8 8 9 9 9 9 10 14 16 15 14 14 14 14 13 14 14 13 13 12 14 15 14 15 15 13 11 13 16 17 18 16
4 1 4 5 3 4 9 8 8 7 3 2 7 10 10 11 12 11 11 10 8 10 10 9 11 10 8 9 9 10 8 9 12 12 13 16 15 13 12 12 11 11 11 11 10 9 8 8 8 7 6 5 4 5 5 5 5 5 6 7 7 7 7 7 8 8 8 8 8 8 10 10 13 15 14 13 13 13 14 13 12 12 14 16 14 13 14 16 16 16 17 15 13 16 17 17 18
3 3 4 6 3 4 10 7 6 7 3 2 5 6 8 10 11 11 11 9 8 9 10 9 10 10 9 9 9 9 8 9 12 10 11 15 16 14 13 12 12 11 11 11 10 10 9 8 8 7 6 6 5 5 5 5 5 5 6 6 6 7 7 7 8 8 8 8 8 9 11 11 11 13 13 12 12 12 13 14 13 12 11 14 16 15 15 16 17 16 18 19 15 14 16 18 19
5 4 3 4 2 1 4 6 7 5 2 3 4 1 4 8 9 10 10 9 8 9 10 10 10 9 9 10 9 9 9 9 12 11 10 13 15 14 13 13 13 12 11 12 12 11 10 9 9 8 7 6 6 5 5 5 5 5 6 6 6 7 7 7 8 8 8 8 9 8 9 10 10 12 13 12 11 11 11 12 14 14 12 12 14 17 17 16 17 16 17 18 17 13 13 16 18
2 2 5 5 3 2 1 6 7 6 6 3 3 3 1 2 4 7 10 9 8 10 10 9 10 9 8 10 10 10 10 10 11 11 10 11 13 14 14 14 14 13 12 13 13 12 11 10 10 9 8 7 6 6 5 5 5 5 6 6 6 6 6 6 7 8 8 7 8 8 8 8 8 10 11 10 10 10 10 9 11 13 14 13 13 14 16 16 16 16 16 16 17 15 13 13 15
3 6 6 9 9 4 6 10 8 4 2 1 4 4 2 1 3 3 6 9 8 8 10 9 9 10 9 9 10 10 11 11 10 11 10 11 13 14 15 15 14 13 13 14 14 12 11 12 11 9 8 7 7 7 6 5 5 5 5 5 5 5 6 6 6 7 7 7 7 7 7 7 7 8 8 8 8 9 9 9 8 10 13 14 13 13 14 15 15 15 15 15 15 15 14 13 13
2 3 7 13 9 2 6 9 7 0 3 2 4 3 2 3 4 2 4 7 9 8 10 10 9 10 9 9 10 9 10 10 9 10 10 10 13 14 14 16 15 13 14 14 14 12 13 13 12 10 9 7 7 7 6 5 5 4 5 5 5 5 7 7 7 7 7 7 7 7 7 6 6 6 6 7 7 7 8 8 8 10 12 12 12 12 13 13 13 13 13 13 14 13 14 14 13
2 5 8 9 5 5 4 6 6 2 3 3 3 3 1 3 5 5 4 6 8 10 10 10 10 10 10 10 12 11 10 11 9 9 10 10 13 14 15 16 15 14 15 15 14 13 14 14 12 11 9 8 7 7 6 5 5 4 5 5 5 6 7 7 7 7 7 7 7 7 7 6 6 5 5 6 6 6 6 7 8 10 11 10 9 11 11 10 10 10 9 10 11 12 13 13 13
2 8 7 3 2 2 3 3 3 2 2 2 4 5 1 2 5 9 7 3 6 10 10 10 10 10 11 11 12 12 12 12 11 10 9 10 13 15 17 17 16 16 16 16 15 14 15 15 13 11 10 9 8 8 7 6 5 5 4 5 6 6 6 8 8 7 6 7 7 7 6 6 5 5 5 5 5 5 6 6 7 8 8 8 8 8 8 8 8 7 8 9 10 11 11 9 9
4 8 1 5 5 7 10 3 2 2 4 2 9 7 2 1 3 6 9 7 8 10 9 9 9 10 11 11 12 12 12 11 11 10 10 10 13 17 19 18 17 17 17 16 16 15 15 15 14 12 11 9 9 8 8 7 6 5 4 4 6 7 6 7 8 7 6 7 7 6 6 6 6 5 4 4 4 4 4 5 5 6 6 6 6 7 6 6 6 6 6 8 8 8 8 7 7
6 5 3 6 4 7 6 3 2 2 2 5 10 8 5 2 3 4 6 8 10 8 7 9 11 12 12 10 12 13 12 10 11 11 11 12 14 18 20 17 16 19 18 17 16 15 15 15 14 13 11 10 10 9 8 8 7 6 5 4 5 7 7 7 8 7 7 7 7 7 6 6 5 5 4 4 4 3 3 3 4 5 5 5 6 6 6 6 6 5 5 5 6 6 6 6 6
3 0 4 5 3 5 2 3 0 0 2 4 8 8 4 2 4 7 9 11 13 11 10 12 12 13 12 10 12 13 12 11 12 11 12 12 12 16 18 16 16 20 18 17 17 16 16 15 15 14 12 11 11 10 9 8 7 6 6 4 4 6 7 7 8 8 8 7 7 7 6 6 5 4 4 3 3 3 3 4 4 5 5 5 6 7 7 7 6 6 6 5 6 6 5 5 4
3 3 5 5 2 3 1 3 1 2 4 4 9 7 2 2 6 13 15 16 15 12 11 13 13 13 12 11 12 12 11 12 12 10 11 11 10 12 15 15 17 18 17 17 18 18 17 16 16 15 13 12 12 11 10 9 8 7 6 5 5 4 6 8 8 8 8 7 7 7 6 6 5 4 4 3 3 3 4 5 5 6 7 7 7 8 8 8 8 8 7 7 8 8 7 6 5
1 5 4 3 2 1 1 3 3 3 5 2 9 10 4 2 5 14 17 16 15 12 11 13 13 13 12 11 13 13 11 12 11 11 12 10 10 12 14 16 17 17 17 17 17 18 17 17 17 15 14 13 12 12 11 10 8 7 7 6 6 5 5 7 8 8 8 6 6 6 6 5 4 4 4 3 4 4 5 6 6 7 7 7 8 9 9 9 9 9 9 9 10 10 9 8 8
1 6 6 5 5 3 2 1 2 2 5 3 6 8 5 1 2 10 14 13 13 11 10 13 13 13 12 11 13 13 12 13 11 12 13 11 12 14 15 16 17 17 18 17 17 18 17 18 18 16 15 14 13 12 12 11 9 8 7 6 7 7 6 6 7 8 7 6 6 6 5 4 4 4 4 4 4 4 5 6 7 7 8 8 9 9 9 10 10 10 11 12 12 11 11 11 10
3 5 6 4 5 5 1 1 4 3 4 5 1 4 3 3 3 6 11 10 12 10 8 13 14 14 12 11 13 13 11 12 12 13 13 12 13 15 16 17 17 17 18 17 17 17 17 18 18 17 16 15 14 13 12 11 10 9 8 7 7 8 8 7 7 7 6 6 5 5 5 4 3 3 3 3 3 3 4 6 7 7 8 9 9 9 10 11 11 11 12 13 13 12 12 13 13
2 2 3 3 6 5 1 1 5 4 4 3 2 3 2 4 4 5 10 9 12 12 8 12 15 14 12 11 12 12 11 12 13 14 13 12 13 15 17 18 18 18 18 18 18 18 17 18 18 18 17 16 15 14 13 12 11 10 9 8 8 9 9 8 8 7 6 5 5 5 5 4 2 3 2 2 3 4 4 6 6 7 8 8 8 10 10 11 11 12 12 13 13 12 13 14 14
4 2 5 3 4 4 1 0 2 3 3 1 3 2 3 1 1 4 9 9 11 12 10 11 14 13 12 11 11 12 12 13 15 15 14 13 13 15 18 18 19 19 19 19 18 18 18 18 19 18 18 18 16 15 14 12 11 11 10 9 9 9 9 9 9 8 7 5 5 4 4 3 2 2 1 2 3 4 4 5 5 6 7 7 9 9 10 11 11 12 12 13 13 13 14 15 15
5 5 5 4 1 3 3 1 2 2 2 1 5 5 3 2 1 3 7 10 10 11 11 11 12 12 11 11 12 11 11 12 14 15 14 13 13 16 18 19 20 20 20 20 20 19 18 18 19 19 18 18 17 16 15 13 12 11 10 10 10 10 10 9 9 9 7 6 6 5 4 3 2 1 0 2 3 3 4 4 4 5 6 7 8 9 10 10 11 12 12 13 14 14 14 15 16
7 6 6 6 4 2 2 2 2 2 2 2 4 7 3 3 3 6 6 8 9 11 12 11 11 10 9 10 11 10 10 10 12 15 14 13 13 17 19 19 20 21 21 21 21 20 20 19 19 19 18 17 17 17 16 15 13 12 11 11 11 11 11 11 10 9 7 7 6 6 5 5 3 2 1 1 1 1 2 2 4 6 7 8 8 9 9 10 10 11 12 13 13 13 14 14 15
6 6 7 5 2 2 1 1 2 3 2 2 1 3 2 2 3 4 3 4 7 10 11 10 11 11 9 9 8 8 9 9 11 13 14 13 13 16 19 19 20 21 20 21 21 21 21 20 20 19 19 18 18 18 17 16 15 13 12 13 13 12 12 11 11 10 8 8 8 7 6 6 5 4 2 1 1 2 2 4 5 6 7 8 9 9 9 9 10 10 11 12 12 13 14 14 15
6 4 3 2 1 2 1 2 2 2 2 2 1 1 2 2 2 2 1 3 6 9 12 11 11 12 10 9 8 7 8 8 9 12 14 13 12 15 19 19 20 20 20 21 21 21 21 21 20 21 20 20 19 19 18 17 16 15 14 14 14 14 13 12 11 11 10 10 9 9 8 7 5 4 3 2 2 3 4 5 7 7 8 9 9 9 9 9 10 10 11 12 12 13 14 14 15
Wind_Direction
257 254 247 237 228 239 231 213 236 215 227 250 245 251 245 244 246 246 254 349 345 58 56 54 47 41 65 80 81 68 41 34 30 28 79 110 124 116 112 111 113 112 108 103 95 89 84 83 80 78 75 71 67 61 55 47 43 41 38 35 32 27 25 22 19 17 16 15 13 9 7 8 4 353 354 5 3 359 355 356 356 341 345 356 351 352 351 347 350 354 351 347 346 341 335 334 334
251 240 227 230 226 235 237 204 240 236 218 244 240 248 250 250 276 323 28 44 46 62 55 57 57 56 83 83 71 69 44 34 64 80 95 125 118 100 107 107 111 113 108 105 98 93 88 87 83 79 75 70 63 56 50 45 43 41 40 35 30 27 24 21 20 18 17 14 11 9 7 7 9 6 356 4 0 350 355 360 358 346 353 2 357 357 355 352 344 338 341 346 349 350 339 326 324
247 238 221 215 224 230 245 218 233 253 237 245 239 284 291 298 38 35 44 54 45 47 56 68 58 44 72 71 54 67 71 72 79 87 113 141 125 102 114 109 111 112 107 106 102 98 93 91 86 81 75 67 59 53 47 43 43 42 39 32 27 24 21 20 19 18 16 11 8 8 10 6 6 15 7 6 354 341 355 1 358 353 359 3 356 356 357 356 347 334 341 350 347 354 346 325 325
251 255 237 203 212 221 236 235 229 253 258 260 246 31 13 22 41 50 44 46 55 46 53 75 60 42 61 69 72 87 85 89 68 81 115 138 122 118 117 110 112 109 109 110 107 103 99 96 89 83 74 66 59 51 47 44 45 44 39 31 27 23 20 18 18 17 14 11 11 10 11 8 6 13 11 14 358 345 358 0 359 353 354 359 352 353 356 360 355 341 342 347 342 354 346 325 336
248 257 247 221 224 216 228 241 237 246 245 267 277 51 37 39 34 39 27 5 42 58 52 68 71 55 66 61 41 83 76 94 75 84 107 119 121 125 119 114 115 111 114 110 104 103 99 97 90 83 75 67 60 53 50 50 51 47 39 31 26 22 19 16 17 18 14 13 12 14 15 10 9 8 11 21 5 358 3 1 1 351 353 359 350 347 350 354 356 348 344 343 339 343 338 329 341
243 246 237 231 261 270 263 251 245 249 242 273 42 56 44 58 45 34 24 347 13 52 62 74 103 95 78 59 50 55 25 98 88 85 109 129 129 127 124 117 114 112 113 105 101 100 98 96 87 81 74 68 62 58 57 59 56 46 37 30 25 20 16 14 17 19 18 17 15 21 22 15 15 14 17 22 9 7 6 2 4 356 358 0 352 351 349 350 354 353 346 341 339 334 331 335 339
235 241 217 213 253 264 257 256 253 254 270 61 82 82 62 63 58 37 13 331 33 52 61 65 96 95 88 85 70 40 25 84 105 120 125 133 133 129 124 117 115 114 110 105 104 102 102 95 87 79 71 70 67 65 65 64 54 43 35 28 22 16 12 11 17 22 20 20 23 29 28 22 21 23 22 17 11 11 7 4 7 4 4 5 2 359 353 350 352 353 346 340 335 328 332 342 341
235 243 222 215 230 232 233 252 257 255 96 78 79 85 86 73 66 45 354 357 38 48 64 76 88 84 82 94 84 45 57 93 112 124 127 128 130 131 126 123 121 118 112 108 107 104 100 91 85 79 75 77 75 73 69 62 51 41 33 24 18 14 11 12 20 24 21 22 27 29 31 29 25 28 24 14 12 9 6 6 7 9 10 10 6 357 354 352 348 346 345 343 336 330 343 350 339
228 227 243 239 232 244 244 248 255 266 101 90 86 91 98 89 100 123 33 23 45 50 61 85 97 95 102 87 83 63 76 104 117 124 130 131 133 135 131 129 123 118 115 112 112 107 97 91 87 84 84 84 80 74 68 59 50 40 29 20 16 16 13 18 27 26 24 26 27 28 32 33 28 27 22 13 13 10 6 8 7 9 9 9 5 355 354 354 344 338 339 342 340 339 349 352 334
215 206 241 262 243 245 254 254 253 282 36 80 84 101 110 97 144 145 107 85 75 56 41 55 92 112 120 97 82 64 104 124 129 128 131 134 132 131 126 121 118 118 118 118 121 113 99 88 83 88 90 87 83 73 68 60 49 39 29 22 20 21 18 26 33 31 28 27 29 31 29 33 31 23 19 13 12 11 5 6 7 2 3 6 8 5 1 359 350 344 341 340 344 345 348 352 335
232 209 228 259 257 254 260 260 247 317 21 50 50 68 100 118 222 165 139 101 86 88 336 31 98 117 118 102 95 169 162 145 134 131 130 130 126 121 115 108 107 114 115 120 123 121 113 90 76 83 90 87 82 74 69 60 48 40 34 32 31 25 25 36 37 34 35 30 29 31 28 30 31 23 19 17 15 14 7 7 8 1 7 10 8 10 6 7 7 1 357 353 350 342 344 355 349
255 249 252 268 262 265 272 271 271 304 26 40 26 5 23 189 225 193 110 82 84 117 112 4 108 123 117 109 122 164 159 149 136 133 132 130 125 116 110 108 105 106 107 114 116 119 119 101 86 78 80 84 81 73 66 58 49 43 42 43 43 34 30 41 40 36 36 33 30 28 27 25 28 28 22 25 27 25 20 15 12 9 19 20 11 13 7 6 11 7 7 4 352 344 351 355 353
264 269 283 281 268 270 268 267 276 290 38 54 54 332 318 301 268 69 75 75 71 92 50 26 112 114 105 113 134 151 148 143 141 141 142 136 126 118 116 119 114 108 105 108 109 108 108 106 105 84 76 82 80 69 59 54 50 46 49 49 49 41 32 38 41 35 32 31 31 28 26 22 25 33 33 36 38 35 31 24 18 15 22 24 17 18 12 9 13 11 10 7 357 356 4 6 359
298 276 283 276 279 277 265 263 274 298 53 84 110 310 327 329 348 49 79 82 50 52 50 33 87 107 106 120 144 146 148 149 151 153 148 138 127 124 126 124 113 107 104 105 104 100 100 101 101 90 82 85 80 64 51 44 45 48 54 56 52 44 35 33 37 35 34 30 29 29 21 17 26 38 41 39 39 36 29 23 23 21 22 23 21 21 17 16 15 13 12 10 6 2 13 20 359
288 285 287 273 284 273 267 274 258 236 98 109 116 37 29 352 11 52 81 94 53 16 40 41 47 115 115 125 155 145 152 156 163 161 147 138 132 130 129 118 107 105 103 99 96 93 95 98 94 90 87 88 80 67 50 27 26 40 66 74 57 46 42 35 39 36 34 33 30 29 17 12 23 30 31 32 34 32 25 23 26 27 27 24 26 26 24 23 20 20 19 15 8 4 17 17 334
294 286 274 277 307 293 288 309 281 167 123 137 172 79 73 42 50 61 68 97 105 23 35 47 40 131 116 120 151 144 152 162 168 163 147 137 132 126 119 109 106 106 102 97 92 89 89 92 91 88 86 88 81 71 53 14 1 16 84 99 69 52 50 43 44 39 33 31 24 27 24 15 27 26 21 25 24 24 25 28 30 30 32 29 27 29 31 30 27 27 24 13 6 8 11 350 326
333 316 279 286 306 282 285 323 325 112 129 152 154 82 66 57 61 68 47 55 77 58 53 68 60 124 121 125 136 138 154 169 166 161 149 130 122 118 116 117 116 110 102 97 93 90 86 86 89 89 85 89 87 79 62 23 359 328 155 110 71 50 52 49 44 36 28 23 17 12 7 6 45 40 20 20 21 19 19 25 33 35 36 34 24 25 31 29 26 27 21 9 8 10 357 332 350
350 357 292 281 251 262 292 325 2 89 111 115 73 63 105 104 86 121 58 53 65 74 56 96 95 86 109 120 130 144 163 177 166 159 141 120 125 139 133 123 119 120 110 96 93 91 86 86 86 86 85 89 91 84 71 35 8 342 149 102 60 43 47 53 46 32 17 16 22 10 355 342 10 46 28 27 28 10 5 19 29 35 35 32 23 20 22 21 21 18 15 13 14 17 13 9 13
22 1 266 267 266 284 317 311 27 79 80 76 44 8 160 130 130 164 146 108 121 104 62 101 105 108 126 128 141 155 164 174 167 150 125 121 147 144 120 113 119 123 112 101 98 91 87 90 87 85 85 87 83 71 64 42 14 16 53 59 41 42 46 49 42 35 18 11 16 6 357 345 341 40 46 30 32 11 2 13 20 25 26 25 20 19 25 24 25 19 18 24 27 28 35 32 24
75 251 258 252 252 271 285 297 79 94 90 90 79 248 130 90 121 138 129 137 143 127 133 132 120 132 139 140 152 152 157 165 157 138 127 143 155 122 114 123 126 115 105 104 98 91 91 95 90 84 77 70 66 66 62 49 21 21 40 43 35 42 49 43 37 50 39 17 11 1 4 1 344 10 41 22 37 30 16 9 6 16 21 20 11 14 35 32 29 26 25 36 35 34 47 46 38
139 235 264 245 244 264 266 296 100 109 92 114 169 203 101 93 101 115 140 138 130 139 156 156 140 142 143 147 151 151 165 165 150 151 150 150 137 114 105 91 96 108 110 108 102 101 100 97 94 84 74 61 50 61 66 55 30 27 40 39 34 46 48 36 37 59 49 30 24 6 5 10 351 6 37 26 29 44 34 17 11 18 22 19 8 12 38 34 31 31 30 39 40 40 47 50 50
174 254 256 234 62 274 252 100 95 111 109 142 169 141 114 127 96 103 138 118 108 140 154 157 147 146 148 149 151 158 166 156 154 165 159 145 133 123 109 99 116 124 108 98 94 95 91 93 97 89 80 67 55 56 62 59 37 37 53 41 29 46 49 36 38 53 53 40 30 7 358 5 14 20 38 31 22 41 41 29 21 21 24 22 14 19 35 28 28 34 36 41 41 45 46 50 55
209 250 250 220 188 228 224 107 89 112 128 137 121 119 122 110 96 100 97 91 104 128 145 154 156 152 148 149 153 159 151 151 174 167 151 145 138 131 123 131 141 114 97 93 92 89 85 93 95 92 88 72 66 62 62 61 38 37 63 55 35 43 50 43 40 46 52 46 28 11 5 12 28 25 25 30 28 33 38 37 28 23 24 21 19 25 32 27 25 29 34 37 41 49 46 52 56
240 253 238 228 205 205 146 105 94 96 113 112 109 113 104 95 104 111 101 108 123 136 147 150 158 154 150 158 153 149 153 171 185 159 147 147 134 126 117 102 89 92 97 102 99 99 102 107 101 90 84 72 64 61 64 61 42 38 47 50 46 43 52 51 46 47 48 44 29 23 18 15 19 17 19 26 34 36 35 33 27 29 32 24 22 27 26 27 38 37 36 32 34 50 52 68 85
199 232 211 203 167 135 104 104 102 101 107 109 109 99 91 103 113 110 111 120 133 144 149 154 167 162 159 165 152 154 169 175 170 151 151 145 133 130 114 92 87 95 104 108 107 112 114 111 100 87 79 72 63 60 66 61 50 44 30 39 46 42 54 56 50 53 50 41 33 37 35 20 9 12 17 17 32 43 43 36 22 23 38 37 27 28 23 24 45 52 57 41 33 55 63 78 102
193 212 168 135 109 110 112 111 110 108 114 118 106 95 102 128 125 105 109 126 138 150 159 170 176 161 160 164 153 158 164 161 157 155 155 142 142 136 127 133 124 115 117 120 115 109 106 102 93 88 84 77 72 69 71 65 59 50 36 43 40 34 50 55 51 59 57 44 41 46 46 36 16 9 10 16 25 28 51 53 33 20 31 39 30 29 26 24 38 44 55 49 36 53 58 62 76
201 202 123 119 118 124 123 120 123 115 112 115 97 105 127 156 148 106 119 136 143 156 163 175 180 156 154 157 153 158 156 158 158 159 154 147 150 141 150 159 131 123 128 122 114 106 100 99 97 95 91 84 81 79 78 74 69 59 51 54 38 34 48 51 57 69 61 47 45 51 51 46 29 11 7 15 16 14 38 54 47 38 21 28 34 31 27 27 32 34 44 44 37 52 60 65 70
199 176 124 134 135 126 121 116 118 124 122 105 87 116 145 165 150 125 137 145 153 162 164 177 184 162 153 153 158 163 155 156 154 152 153 152 152 151 164 141 112 119 123 114 110 110 102 102 103 98 92 87 85 80 82 81 74 68 58 60 51 44 49 48 62 78 69 53 43 47 57 53 35 15 3 12 25 18 31 40 46 41 17 27 42 32 28 32 29 29 47 49 41 52 61 66 69
189 175 138 145 141 128 136 140 141 155 131 115 99 104 159 163 136 139 147 153 161 168 173 175 169 160 158 153 158 164 155 152 146 148 169 165 155 159 153 124 119 122 116 114 115 116 113 111 106 99 94 87 85 79 79 81 73 70 58 58 62 50 38 36 58 82 75 59 43 38 49 50 44 28 3 13 36 21 15 27 38 36 23 31 37 30 34 38 30 27 44 54 48 52 58 63 70
350 265 160 143 147 135 150 161 163 167 132 135 144 102 174 179 143 149 154 158 162 170 180 165 150 164 165 154 156 158 156 150 146 155 176 171 153 151 140 134 148 134 121 122 122 122 116 113 108 99 96 87 83 77 72 76 73 69 61 56 62 58 44 32 49 78 75 64 53 43 42 42 43 43 24 17 30 30 22 29 38 34 31 37 29 29 38 37 32 29 35 49 55 59 63 64 69
268 248 177 172 211 137 146 155 158 158 135 156 179 138 162 162 147 156 160 162 163 168 176 157 156 171 160 159 161 155 153 148 151 159 170 165 148 144 138 146 155 129 125 128 124 124 115 114 114 104 100 91 82 74 67 70 72 69 65 60 60 63 57 33 36 67 71 66 63 52 45 42 39 43 43 27 22 35 41 37 33 15 30 48 29 29 39 33 31 35 33 38 55 60 62 69 69
266 249 173 200 205 135 142 158 162 146 140 171 189 125 140 147 149 159 162 166 166 165 167 159 166 167 155 164 163 153 153 153 157 161 165 152 137 139 142 148 145 126 130 134 130 126 117 115 113 109 107 95 80 71 66 65 69 68 66 65 62 63 65 41 34 59 68 63 62 56 51 49 44 42 46 43 36 41 37 28 25 12 24 42 31 31 39 33 29 37 37 37 49 55 53 60 66
268 267 225 217 180 143 145 165 164 140 149 182 194 157 136 144 155 161 166 170 168 164 164 165 171 164 156 162 159 157 157 155 160 158 151 133 128 142 147 145 142 134 137 137 136 133 123 118 114 115 109 95 82 69 65 64 66 67 69 67 62 63 66 53 41 58 69 66 61 55 55 55 48 46 48 51 53 53 41 31 27 19 23 32 32 33 39 38 31 35 44 43 44 48 47 43 48
267 261 246 232 170 149 148 158 147 146 172 176 170 166 134 143 157 161 171 175 172 168 164 167 170 162 158 162 156 153 154 152 156 147 130 122 133 144 145 144 143 139 141 141 141 137 128 125 120 116 109 99 83 70 66 68 72 72 73 69 67 66 64 57 45 54 65 68 65 57 56 57 52 50 51 54 55 53 49 41 34 28 29 30 28 30 36 38 33 37 45 46 44 44 44 36 35
239 229 234 234 163 153 148 148 142 167 200 162 138 146 134 144 158 161 172 180 180 168 161 167 164 159 159 162 155 149 151 145 147 140 127 129 143 142 142 145 146 145 144 144 143 138 133 128 123 120 114 104 86 81 85 86 88 86 82 76 73 70 64 59 52 55 63 66 66 62 60 61 60 57 54 54 55 53 49 45 42 39 38 38 35 34 35 35 31 35 43 48 48 45 41 34 29
273 268 237 201 154 138 114 125 150 181 207 169 139 139 136 146 156 164 172 182 190 165 157 167 158 159 160 157 156 147 144 139 148 147 136 143 153 143 145 147 149 152 147 146 145 142 139 131 127 127 119 113 104 98 101 95 91 89 91 88 83 78 73 66 60 61 62 60 65 63 64 74 72 64 60 58 57 56 52 48 47 45 41 42 46 43 38 37 30 26 37 54 54 46 39 30 21
240 329 274 245 126 114 107 126 162 165 174 156 131 127 139 151 154 166 169 176 193 163 157 169 153 158 163 157 157 141 136 143 146 142 137 146 154 147 148 151 155 154 150 151 148 144 143 137 134 133 127 123 107 90 90 87 86 90 96 94 92 89 86 82 73 69 64 59 63 55 55 81 81 68 63 62 61 58 54 50 49 49 44 39 44 47 44 43 37 29 34 52 63 53 40 29 22
199 285 295 320 353 122 119 133 155 129 100 156 137 133 146 153 154 164 168 175 190 165 164 175 156 159 166 161 158 143 147 154 138 129 132 140 149 152 152 156 160 157 155 156 152 150 148 142 138 136 134 129 109 98 95 81 73 81 90 89 88 82 78 83 80 77 74 65 59 42 39 66 82 74 64 60 61 60 54 48 45 48 49 44 44 47 49 49 45 40 35 36 57 62 50 37 32
29 32 350 324 308 122 116 130 155 142 154 161 127 137 148 154 158 161 169 178 189 177 172 172 162 166 169 163 159 150 155 150 135 136 142 143 151 157 156 159 162 161 159 158 158 155 151 147 142 140 140 135 124 115 108 97 83 78 87 89 92 91 86 89 87 83 81 73 65 48 39 52 70 74 68 57 54 57 55 48 44 43 46 49 47 44 47 49 49 49 43 34 40 59 61 50 41
48 26 321 273 267 56 116 143 143 121 34 52 95 149 159 149 157 162 173 181 185 185 177 172 173 175 171 163 159 159 158 144 140 151 152 150 158 160 157 159 161 164 163 162 163 159 156 155 148 145 142 137 131 123 113 108 101 92 94 93 96 102 101 97 94 88 82 78 74 61 53 54 52 59 66 61 52 52 52 47 46 44 43 50 51 47 47 48 48 50 49 41 36 43 56 57 50
139 191 261 282 284 266 162 110 103 68 25 38 136 203 198 119 167 175 176 183 188 185 178 177 177 171 174 166 157 162 160 148 151 158 157 156 161 163 161 160 161 167 169 165 166 164 160 157 152 149 145 140 137 131 125 120 114 111 111 109 106 106 102 96 95 93 85 81 79 70 66 62 50 53 61 61 54 48 45 46 49 47 44 46 49 52 50 49 49 48 48 45 41 39 43 54 56
195 197 222 260 260 221 112 100 91 56 44 253 246 227 187 225 257 237 185 181 186 188 179 180 178 170 179 169 154 164 163 157 159 158 164 164 158 162 163 161 165 171 171 166 167 167 159 156 154 150 147 144 141 140 138 134 129 128 130 127 122 115 104 94 91 93 91 88 86 78 73 66 62 67 64 61 57 48 44 43 49 54 51 45 45 50 52 51 50 48 49 47 44 43 44 47 48
293 249 208 223 236 82 104 127 114 123 181 147 309 282 213 213 227 288 266 201 180 187 184 179 180 174 182 169 153 170 168 157 160 158 166 164 154 162 163 161 169 173 168 164 166 167 158 154 156 151 150 148 147 148 143 138 133 131 129 121 118 115 109 102 95 96 98 97 94 87 84 75 70 73 70 67 62 52 47 36 36 55 59 50 47 48 48 50 49 48 50 50 49 42 38 41 37
304 274 238 224 193 127 178 161 118 175 192 92 354 287 224 232 209 187 257 246 186 187 190 182 184 177 179 168 157 176 171 154 162 164 163 157 154 164 161 161 173 172 164 162 164 166 158 155 157 153 151 152 152 152 146 139 134 130 125 119 118 115 117 121 113 103 99 98 97 93 89 85 76 71 70 72 65 55 51 37 35 52 57 50 48 48 48 49 48 49 45 47 57 47 36 42 42
281 252 249 305 326 119 109 84 91 149 113 84 260 250 207 276 225 177 176 241 214 200 194 186 185 177 177 172 166 172 163 155 165 165 158 152 156 163 160 165 176 167 160 163 164 164 158 157 158 154 154 157 156 155 153 148 142 141 140 136 131 122 122 127 116 104 102 99 98 96 94 92 88 80 73 73 66 54 48 43 42 44 44 44 43 44 47 45 42 41 27 28 46 47 43 44 39
246 257 209 55 351 36 64 36 284 126 103 216 242 227 181 272 252 179 164 190 222 207 190 188 187 184 180 172 170 163 153 160 164 156 152 151 156 157 157 170 174 160 159 165 163 161 160 159 160 156 157 161 159 160 160 154 150 147 146 145 136 126 118 116 112 110 113 112 106 104 105 103 99 96 88 79 74 65 49 43 40 32 32 38 38 36 37 35 34 30 16 21 30 29 37 36 18
213 242 104 92 15 52 85 244 263 101 122 234 226 197 175 209 216 211 192 195 210 195 181 196 192 185 178 167 166 157 154 163 153 148 153 151 153 150 155 175 169 152 160 166 161 161 161 161 161 160 162 164 163 166 164 157 158 153 146 146 132 127 126 122 124 126 122 119 113 109 110 109 107 105 100 92 84 73 52 42 36 28 27 26 24 23 22 22 24 21 10 14 15 1 10 23 11
187 98 69 86 25 49 94 269 83 202 274 198 187 174 165 221 194 203 221 213 206 198 191 196 191 179 168 166 165 155 156 155 145 153 155 147 151 148 158 176 160 149 163 168 163 164 162 161 163 163 166 168 165 168 167 161 164 158 148 147 123 124 132 131 130 130 126 122 119 118 117 116 117 112 105 97 87 68 40 35 28 18 16 15 12 8 7 8 5 1 357 353 349 342 352 2 352
162 109 58 69 29 27 2 297 341 259 273 138 152 178 191 278 199 191 208 210 200 201 192 182 184 172 160 169 164 152 152 149 149 156 147 146 155 152 164 171 152 151 169 173 166 163 162 162 165 167 170 170 168 170 170 166 167 160 153 150 133 127 134 132 129 126 124 126 128 130 128 124 124 122 110 88 78 65 31 25 18 9 8 7 6 2 1 1 359 356 357 357 353 352 358 357 339
230 127 98 96 100 47 240 278 319 294 291 118 156 201 243 299 193 174 184 190 182 194 189 170 173 161 154 171 162 150 152 151 154 152 143 153 160 156 167 164 153 158 173 177 168 161 161 162 166 170 171 172 172 170 170 170 169 163 159 154 146 144 137 130 132 128 126 130 129 125 128 128 126 119 109 79 56 42 25 17 8 1 1 3 5 6 6 8 9 10 12 12 11 10 9 7 360
286 127 142 140 143 209 231 186 234 249 294 305 172 207 245 295 145 139 151 161 160 176 175 158 159 151 154 171 159 152 158 155 156 150 146 159 160 161 166 159 157 167 175 179 170 162 162 162 167 172 171 174 176 173 172 172 172 167 163 159 151 152 148 133 131 131 132 134 129 127 125 114 106 100 87 64 40 26 16 6 359 2 10 14 15 15 18 21 22 24 26 26 24 22 22 27 28
3 91 127 129 154 215 270 140 223 231 261 275 176 176 224 305 341 124 137 143 140 143 148 148 151 151 161 172 159 155 162 160 155 147 150 159 158 162 163 158 162 171 176 178 172 168 166 164 170 174 173 176 177 174 175 174 173 170 167 166 160 157 158 151 142 142 146 141 136 135 124 106 97 92 73 52 24 355 3 8 6 19 29 26 25 27 28 30 31 32 33 31 28 28 34 38 38
28 60 154 205 206 203 100 169 224 251 259 265 80 131 197 326 319 153 139 138 137 132 144 154 148 152 168 171 160 160 165 162 153 148 153 158 159 163 165 164 167 171 177 180 175 173 171 169 173 175 174 176 178 177 177 176 175 172 172 172 168 164 163 161 157 158 158 145 136 129 122 118 106 88 71 41 6 344 3 20 26 38 38 33 33 35 36 36 36 37 36 33 30 35 44 46 44
130 190 174 195 234 206 143 294 238 257 277 341 79 153 211 220 260 155 139 146 147 138 148 158 146 152 173 169 157 164 167 157 149 151 156 156 160 167 168 172 173 172 177 179 178 177 175 174 175 177 177 176 179 179 177 178 177 175 178 177 173 172 170 167 164 164 163 154 146 138 132 137 118 90 56 21 11 4 11 30 51 54 42 41 41 40 43 43 41 42 40 36 37 42 48 49 48
186 221 180 151 220 212 180 196 302 303 315 349 130 149 238 249 213 212 169 152 151 146 146 153 150 157 174 166 157 163 159 147 147 154 157 156 163 170 171 174 175 174 177 178 179 178 178 179 177 179 182 178 178 180 178 180 180 178 181 181 178 176 175 174 169 168 169 166 163 158 156 166 173 183 69 40 18 16 21 30 68 80 62 53 50 48 50 49 47 47 44 40 42 46 49 51 52
212 233 224 184 162 196 183 165 260 273 292 292 132 135 214 251 207 232 210 150 154 157 149 153 154 161 175 163 159 162 150 146 153 155 158 158 164 170 172 176 177 176 178 179 179 179 179 180 180 181 183 180 181 182 179 180 182 183 183 181 181 181 182 182 176 174 176 176 177 177 180 189 194 200 173 82 34 44 53 62 86 90 80 68 61 57 56 56 52 50 48 45 46 49 49 52 56
199 209 244 243 154 136 128 158 245 268 274 309 58 133 188 232 202 230 227 157 167 160 153 157 154 162 175 158 154 158 148 152 155 152 156 157 161 167 170 177 179 176 180 180 178 181 180 179 182 182 182 182 184 183 182 182 184 185 185 183 183 185 187 185 179 180 186 188 188 191 200 205 200 191 188 204 175 130 118 112 99 90 86 78 70 64 60 61 61 58 54 51 51 55 52 52 58
238 217 231 295 64 105 60 303 277 307 325 329 312 170 104 75 161 178 184 203 201 173 161 160 156 161 164 151 152 151 144 152 150 147 153 154 161 165 167 179 182 176 180 181 179 183 182 181 184 183 183 185 186 184 183 185 185 186 187 185 184 187 189 189 186 186 192 196 194 197 205 207 202 191 187 211 183 150 139 123 109 98 93 85 76 71 64 63 66 66 63 59 56 59 57 54 58
Height
746 746 746 748 746 748 746 746 761 755 753 762 747 740 729 709 703 703 705 705 710 710 706 709 710 717 727 742 752 756 758 761 764 768 779 775 769 772 771 771 772 773 774 774 774 774 774 774 774 774 774 774 774 774 774 774 774 774 774 773 773 772 771 771 770 770 769 769 769 768 768 766 766 765 765 765 764 764 764 763 762 761 761 761 760 759 759 758 758 758 758 759 759 759 759 758 757
745 747 746 748 746 749 747 742 763 758 755 763 742 732 719 702 706 710 711 712 715 711 706 708 713 723 733 745 748 754 765 765 761 765 771 771 771 772 771 772 772 774 775 775 775 775 775 775 775 775 775 775 775 775 775 775 775 774 774 773 773 772 772 771 770 770 769 769 769 768 768 766 766 765 765 765 765 764 764 763 762 762 761 761 760 760 759 758 758 757 758 758 759 759 759 758 757
746 746 745 748 745 745 745 743 761 761 758 757 736 722 710 710 719 718 718 717 716 710 710 712 722 733 740 752 755 761 770 767 764 766 770 771 772 772 773 773 773 775 775 775 776 775 775 775 775 775 775 775 775 775 776 775 775 774 774 774 773 772 772 771 770 770 769 769 768 768 767 767 766 766 766 765 765 764 764 763 762 762 761 761 760 760 759 759 758 758 757 757 758 759 759 758 758
745 745 743 744 745 747 749 750 754 756 758 747 731 727 721 725 725 721 721 718 715 713 715 720 736 744 746 760 761 763 771 769 769 769 771 772 772 773 773 773 775 776 776 776 776 776 776 776 776 776 776 776 776 776 776 776 775 775 774 774 773 772 772 771 770 769 769 768 768 768 767 767 766 766 766 765 765 764 764 763 762 762 761 761 760 760 759 759 758 758 757 757 758 758 758 758 758
744 744 741 740 746 745 746 748 745 748 751 736 731 735 730 732 731 729 726 721 717 716 721 730 749 751 749 761 760 766 773 770 770 768 771 772 772 772 772 774 775 775 776 776 776 776 776 776 776 776 776 776 776 776 776 776 776 775 775 774 773 772 771 770 770 769 769 768 768 768 767 767 766 766 766 765 765 764 764 763 763 762 761 761 760 760 759 759 759 758 758 757 758 757 757 757 758
744 743 739 738 741 736 743 748 744 741 730 722 734 740 732 733 734 733 730 727 720 719 728 739 752 755 759 764 761 768 771 769 771 769 770 771 772 772 773 774 774 776 776 776 776 776 776 777 776 776 776 776 776 776 776 776 776 776 775 774 773 772 771 770 770 769 769 768 768 768 767 767 767 767 766 766 765 765 764 763 763 762 762 761 760 760 760 759 758 758 758 758 758 757 757 756 756
743 742 738 742 741 737 751 752 741 736 721 719 733 737 734 734 733 734 734 733 728 727 738 749 750 756 768 767 766 770 768 769 770 769 770 770 771 771 773 774 775 776 776 777 776 776 777 777 776 777 776 776 776 776 777 776 776 776 775 774 773 772 771 771 770 770 769 769 768 768 768 767 767 767 766 766 766 765 765 764 763 762 762 761 761 761 760 759 759 758 758 758 758 757 757 755 754
740 741 736 742 748 743 750 747 735 729 721 721 727 733 734 734 736 737 740 739 738 740 749 756 752 762 773 766 771 773 769 770 769 770 771 770 771 772 774 774 775 776 777 777 777 777 777 777 777 777 777 777 777 777 777 776 776 776 775 774 773 772 771 771 771 770 770 769 769 768 768 768 768 767 767 767 766 766 765 764 763 763 762 762 762 761 760 760 759 759 758 758 758 757 756 754 754
735 739 736 739 747 745 743 739 731 721 718 724 729 733 733 734 738 739 743 744 745 750 756 756 751 765 774 769 775 774 771 773 771 772 771 771 772 772 774 774 775 776 777 778 778 778 777 778 777 777 777 777 777 777 777 777 777 776 776 775 773 773 772 771 771 771 770 770 769 769 768 768 768 768 768 767 767 766 765 764 764 764 763 762 762 761 761 760 759 759 758 758 757 756 755 754 755
730 733 738 740 742 746 746 736 728 722 719 725 729 731 733 736 740 741 746 750 753 758 758 752 752 764 771 774 779 774 773 774 772 773 772 772 772 773 774 774 775 776 778 778 778 778 778 778 777 778 777 777 777 777 777 777 777 777 776 775 774 773 772 772 771 771 770 770 770 769 769 769 769 768 768 767 767 766 765 765 764 764 763 763 762 762 761 760 760 759 758 757 756 756 755 755 756
734 730 731 741 743 747 748 735 727 725 722 726 730 730 733 737 743 747 747 751 758 761 758 754 758 763 768 776 779 775 774 773 772 773 772 773 772 773 774 775 776 776 777 778 779 779 778 779 778 778 777 778 777 778 778 778 778 778 777 776 775 774 773 773 772 772 771 771 770 770 769 769 769 769 768 768 767 767 766 766 765 765 764 764 763 762 761 760 760 759 758 756 757 757 756 756 756
739 734 731 743 745 744 742 733 727 726 730 740 744 738 736 739 746 750 751 757 760 759 757 756 760 761 769 777 777 775 773 773 773 772 772 773 773 774 775 776 776 776 777 778 779 779 779 779 779 779 778 778 778 779 779 779 779 778 777 776 775 775 774 774 773 773 772 772 771 770 770 769 769 769 769 768 768 767 767 766 766 766 764 764 764 763 762 761 760 759 759 757 758 758 756 756 756
737 738 741 749 739 736 738 733 728 728 740 751 750 742 742 745 744 747 754 761 758 759 760 756 757 760 770 777 775 774 773 773 772 772 773 773 774 775 776 776 777 777 778 778 779 779 779 779 779 779 778 779 779 780 780 779 779 778 778 776 776 776 775 775 774 773 773 772 772 771 770 770 770 769 769 769 769 768 767 767 767 766 765 765 764 763 763 762 761 760 760 759 759 758 757 757 756
736 736 742 751 737 735 735 731 729 735 750 752 749 744 748 753 747 751 759 763 761 760 761 756 758 766 773 777 777 774 772 772 772 773 773 773 774 775 776 776 777 778 778 779 779 780 779 779 779 779 779 779 779 779 780 780 779 779 778 777 777 776 775 775 774 774 773 773 772 771 771 770 770 770 770 770 769 769 768 768 767 767 766 765 765 764 764 763 762 762 761 760 759 759 759 758 759
733 734 742 748 743 740 732 729 730 740 754 750 748 746 753 760 755 759 760 762 767 760 759 758 759 770 776 778 779 773 770 772 771 772 772 773 774 775 776 776 777 778 779 779 780 780 780 779 779 779 780 780 780 780 780 780 780 779 778 777 777 776 776 775 775 774 774 773 772 772 771 771 771 771 770 770 770 769 769 768 768 767 767 766 766 765 764 763 763 762 761 760 761 761 759 760 763
728 734 745 751 757 756 736 728 729 741 753 747 746 744 757 769 762 765 760 758 766 761 762 764 761 768 772 773 772 768 769 770 770 771 770 772 773 774 775 776 779 779 780 780 780 780 780 780 779 780 781 781 782 781 781 780 780 779 778 778 777 777 776 776 776 775 774 774 773 772 771 771 771 771 771 771 770 770 769 769 768 768 767 767 766 766 765 764 764 763 763 763 763 762 761 763 764
731 740 752 757 771 770 742 734 736 742 749 745 746 747 764 777 768 766 761 758 764 764 766 767 763 763 765 766 767 767 769 769 769 769 769 771 773 774 776 777 779 780 780 780 780 780 780 780 780 781 781 782 782 781 781 780 779 779 778 777 777 777 776 776 776 775 775 774 773 772 772 771 771 771 771 771 771 771 770 770 769 769 769 768 768 767 766 766 765 765 765 765 765 764 765 765 764
741 753 762 761 766 759 738 738 738 739 747 747 754 763 772 778 773 766 763 764 767 766 767 768 766 763 763 764 765 767 769 768 768 769 769 771 774 775 775 776 778 779 780 780 780 780 780 781 781 782 782 782 782 781 781 780 779 778 777 777 777 778 776 776 776 776 775 774 774 773 772 771 771 771 771 772 772 771 771 771 770 770 770 769 769 768 768 767 767 766 766 766 766 766 766 765 763
748 758 764 761 753 744 734 735 734 739 750 751 762 772 767 765 766 763 766 772 770 770 769 769 770 768 765 765 766 768 768 769 769 769 770 772 774 773 774 776 777 778 778 780 780 780 781 781 781 782 782 782 781 781 781 781 780 778 778 779 778 778 777 776 776 776 775 775 774 773 772 771 770 771 771 771 772 772 772 772 771 771 771 770 770 769 769 769 768 767 767 767 767 766 766 764 763
751 757 763 757 745 742 734 732 735 740 747 752 764 766 759 756 756 758 766 772 770 772 770 769 773 771 768 767 767 768 769 770 770 770 772 773 773 773 774 775 775 776 778 779 780 781 781 782 782 782 782 782 782 781 782 781 780 779 780 780 779 778 777 777 776 776 776 775 774 773 772 771 771 770 771 771 771 772 772 772 772 771 771 771 770 770 770 770 769 768 767 767 768 767 765 764 763
751 754 759 750 740 744 737 731 737 740 744 753 761 759 757 755 752 756 762 767 771 771 767 766 770 769 768 768 768 769 770 770 771 772 772 773 773 773 774 774 775 776 777 779 780 781 781 782 782 782 783 782 782 782 782 782 781 781 780 780 779 778 778 778 777 776 776 776 775 774 773 772 772 770 771 772 772 772 773 773 772 772 772 771 771 771 770 770 769 768 767 767 768 768 766 765 764
751 750 748 743 743 750 738 730 737 742 747 753 755 755 756 752 751 756 758 764 769 767 764 764 765 766 767 767 768 769 770 770 771 772 772 773 773 774 775 775 776 776 777 779 780 781 782 782 783 783 783 782 782 782 782 782 782 781 781 780 780 779 778 779 778 777 776 776 776 774 773 772 772 771 771 772 773 773 773 773 773 773 773 773 772 771 771 771 769 769 768 769 770 769 768 766 765
751 749 742 740 745 749 736 731 736 741 748 752 752 751 751 753 756 756 757 762 763 761 761 762 762 763 765 766 769 770 771 773 773 772 772 773 774 774 774 775 775 775 777 780 781 782 782 782 783 783 783 783 783 783 783 783 782 781 781 781 780 780 779 779 779 778 777 777 777 776 774 772 772 772 772 773 773 773 773 774 774 774 774 774 773 773 772 771 770 769 769 770 771 771 769 767 766
749 753 748 741 741 741 732 732 738 740 745 747 745 748 750 755 758 756 759 761 759 759 760 761 762 762 764 767 769 771 772 773 773 772 772 773 774 774 774 775 775 776 778 780 781 782 783 783 783 783 783 783 783 783 783 783 783 782 782 782 781 780 780 780 780 779 778 778 778 777 775 774 773 773 773 773 773 774 774 774 774 775 775 775 774 774 773 772 772 771 771 771 771 772 772 770 770
751 753 748 737 733 733 730 733 739 740 742 742 744 749 752 753 754 757 759 759 758 759 759 760 762 762 765 767 768 771 772 772 772 772 773 774 774 775 776 776 776 777 779 780 782 782 782 783 783 783 783 783 783 783 784 784 784 783 783 782 782 781 781 781 781 780 779 779 778 777 777 776 775 774 774 774 774 774 775 775 775 775 775 775 775 775 774 774 774 774 775 774 772 772 773 773 774
746 742 736 731 732 732 732 736 739 741 741 742 748 753 753 750 751 758 758 757 758 758 760 761 760 762 765 766 767 769 770 771 772 772 774 774 775 775 776 776 777 778 780 780 781 782 782 783 783 784 784 784 784 784 784 785 785 784 784 783 783 782 782 781 781 780 780 780 779 779 778 778 777 776 775 774 774 775 775 775 775 775 775 775 775 775 775 775 776 776 776 775 774 773 773 772 773
735 732 729 731 734 732 732 736 738 740 743 744 750 754 753 750 752 762 760 754 757 759 760 760 760 762 763 765 766 767 769 770 771 773 774 775 776 776 776 775 776 777 779 780 781 782 782 783 784 784 784 784 784 785 785 785 785 785 785 785 784 783 783 782 782 781 781 781 780 779 779 779 778 777 776 775 775 775 775 776 776 776 776 776 776 776 776 775 776 776 776 775 775 774 773 773 773
731 729 731 732 732 732 733 736 738 740 745 746 749 753 753 752 755 760 758 754 757 760 761 761 761 761 761 764 765 765 766 768 771 773 774 776 776 777 776 775 776 777 778 780 781 782 783 783 784 784 784 785 785 785 786 786 786 786 786 786 785 785 784 783 782 781 781 782 781 780 779 779 779 777 776 776 776 776 776 776 776 777 777 776 777 777 777 776 776 776 776 776 775 775 774 774 774
729 727 734 736 732 737 737 736 738 740 746 746 749 760 760 756 758 756 753 753 755 758 760 759 759 759 759 761 762 763 764 766 770 773 774 775 776 776 776 776 777 777 778 780 781 782 783 784 784 784 784 785 785 786 786 787 786 786 787 786 786 786 784 783 783 782 782 782 782 781 781 780 779 779 777 776 777 777 776 777 777 777 777 777 777 777 777 777 777 777 777 777 776 776 775 775 775
732 731 736 742 740 741 735 733 738 739 744 744 750 770 771 758 755 753 751 751 754 759 758 755 758 758 758 758 760 762 762 764 768 771 773 772 774 775 775 777 777 777 779 780 781 782 783 784 784 784 785 785 786 787 787 787 787 787 787 787 787 786 785 784 784 783 783 783 783 783 782 781 780 780 779 778 778 778 778 777 778 778 778 778 778 778 778 778 778 777 777 777 777 777 776 776 776
736 735 736 744 749 742 728 726 735 739 742 741 747 767 768 755 751 750 748 749 753 758 756 753 757 757 757 758 759 760 761 763 766 767 769 770 772 774 775 777 777 778 779 780 782 782 783 783 784 785 785 786 786 787 788 788 788 788 788 788 787 787 786 785 784 784 784 784 784 784 783 782 782 781 781 780 779 779 780 779 779 778 778 779 779 779 779 779 779 778 778 778 778 778 777 778 777
738 744 743 741 742 740 729 723 727 735 738 736 744 759 757 750 748 745 744 745 749 753 753 752 754 754 756 758 758 760 760 761 763 765 766 767 770 773 775 776 777 778 779 780 782 782 783 784 784 785 785 786 787 787 788 788 788 788 788 788 788 788 787 787 786 785 785 785 785 785 784 784 783 783 782 782 781 781 781 780 780 779 779 779 780 780 780 780 780 779 779 778 778 778 778 778 778
742 746 747 739 736 737 735 725 718 726 734 733 740 750 750 747 744 741 740 742 745 749 751 751 751 751 753 756 756 759 760 761 762 763 764 767 770 773 774 776 777 778 779 780 782 782 783 784 785 786 786 787 787 788 788 788 789 789 789 789 788 788 788 788 787 787 787 786 786 786 785 785 784 784 783 783 783 782 782 782 781 781 780 780 780 781 781 782 781 780 780 779 779 779 779 779 778
748 744 744 737 730 732 736 731 719 720 729 731 734 739 744 744 741 740 739 739 742 745 748 749 748 749 750 751 754 757 759 761 762 761 764 768 770 773 774 776 777 778 780 780 781 782 783 784 785 786 786 787 788 788 789 789 789 789 789 789 789 789 789 789 788 788 788 787 787 787 787 786 786 785 785 784 783 784 783 783 783 782 782 781 781 782 782 783 782 781 781 780 780 780 780 779 779
749 746 742 734 724 726 732 731 724 722 726 729 735 740 741 742 740 740 738 737 740 742 744 746 746 748 749 749 751 754 756 759 760 760 764 768 770 772 774 776 778 778 780 781 781 782 783 784 785 786 787 787 788 789 789 789 789 790 790 790 790 790 790 790 789 789 789 789 788 788 788 787 787 786 786 785 785 785 784 784 784 784 784 784 783 783 783 783 783 782 782 781 781 781 781 780 780
739 737 736 734 728 725 723 724 720 719 726 728 732 738 740 742 741 740 738 736 737 739 741 743 745 747 748 749 750 751 755 757 758 759 763 768 770 772 774 775 778 779 780 781 781 782 783 784 785 786 787 788 789 789 789 789 790 790 791 791 791 791 791 791 790 790 790 789 789 788 788 787 787 787 787 787 786 786 786 785 785 785 785 784 784 784 784 783 783 782 782 782 782 782 781 781 780
732 733 733 730 726 725 721 722 717 714 728 730 725 733 738 740 741 738 737 737 737 739 742 743 744 747 748 749 750 751 754 755 756 758 762 766 769 771 773 775 777 778 779 781 781 782 783 784 786 787 788 788 789 789 789 790 790 791 791 791 791 791 791 791 791 791 791 790 790 789 789 788 788 788 788 788 787 787 787 786 786 786 786 785 785 785 784 784 783 783 782 782 782 782 782 781 780
725 729 734 732 728 723 718 720 717 715 730 731 722 730 737 736 738 736 735 739 739 738 741 743 743 746 747 747 750 751 753 752 754 758 761 764 768 770 772 774 776 778 779 780 781 782 783 784 786 787 788 788 789 789 790 790 791 791 791 791 792 792 792 792 792 792 792 791 791 790 789 789 789 788 789 788 788 788 788 788 787 787 786 786 786 785 785 785 784 784 783 783 783 783 783 783 782
727 727 735 742 731 721 719 719 716 716 728 732 725 732 736 732 733 734 735 738 738 735 736 740 741 744 745 746 749 750 752 752 755 758 761 763 766 768 771 773 775 777 778 780 781 782 784 785 786 787 788 788 789 790 790 791 791 791 792 792 792 793 793 793 793 793 793 792 792 791 790 790 790 789 789 790 789 789 789 789 788 788 787 787 787 786 786 786 786 785 785 784 784 784 784 784 784
734 734 739 742 728 725 731 725 719 719 725 731 731 734 735 732 732 733 733 734 733 732 733 734 737 741 742 743 746 749 751 754 756 758 759 762 765 767 770 772 774 777 778 779 781 782 783 785 786 787 788 788 789 790 791 791 792 792 792 792 792 793 793 793 793 793 793 793 793 793 792 791 791 791 791 791 791 790 790 790 789 789 788 788 788 787 787 787 787 786 786 786 785 785 785 785 785
731 733 737 736 726 727 730 725 725 727 729 730 735 747 745 738 741 739 731 731 732 731 732 734 735 736 739 740 743 746 749 752 756 757 758 760 763 766 769 771 773 775 777 778 780 781 783 784 785 786 787 788 789 790 791 791 792 793 793 793 793 793 794 794 794 794 794 794 794 794 793 793 793 792 792 792 792 792 791 791 790 790 790 789 789 789 789 788 788 788 788 788 787 787 787 787 787
730 728 727 729 727 723 725 727 734 747 751 740 739 764 765 745 744 744 733 733 736 733 732 736 736 735 737 739 742 745 746 749 752 754 756 758 761 765 767 770 772 774 776 777 779 781 782 783 785 786 787 788 789 790 791 791 792 793 793 793 793 793 794 794 794 795 795 795 795 795 795 794 794 794 794 794 794 793 793 792 792 792 791 791 791 790 790 790 790 790 790 789 789 789 789 788 788
736 723 716 723 723 724 731 730 739 758 762 746 742 764 773 756 747 745 739 737 738 736 734 735 735 735 736 737 741 743 743 746 749 751 754 756 759 763 765 769 771 773 774 776 779 780 781 783 784 785 787 787 789 790 791 791 792 792 793 793 793 794 794 795 795 795 795 795 795 795 795 795 795 795 795 795 795 795 794 793 793 793 793 792 792 792 792 791 791 791 791 791 790 790 790 790 790
736 716 710 720 720 727 734 730 741 752 749 749 746 751 770 770 751 743 744 742 739 737 735 734 733 733 734 735 738 740 741 744 747 750 751 754 757 760 764 768 769 771 773 775 778 779 780 782 784 785 786 787 788 790 790 791 792 792 793 793 793 794 794 795 795 795 796 796 796 796 796 796 796 796 796 796 796 796 795 795 795 794 794 794 794 793 793 793 793 792 792 792 791 791 791 791 791
725 707 705 716 721 728 731 733 745 745 750 769 757 747 777 782 748 737 745 746 744 740 736 733 731 731 732 733 735 736 738 741 744 747 750 752 755 759 762 766 768 769 772 774 776 779 780 781 783 784 786 787 788 789 790 791 792 792 793 793 793 794 794 794 795 795 796 796 796 797 797 797 797 797 797 797 797 797 797 796 796 796 795 795 795 794 794 794 794 793 793 793 793 792 792 792 792
710 701 707 722 731 737 746 755 756 750 764 783 763 748 779 786 754 741 746 750 748 739 733 731 729 729 729 730 732 733 736 739 741 744 748 751 754 758 761 764 766 768 771 774 775 777 780 781 782 784 785 786 788 789 790 791 792 792 793 793 793 794 794 794 795 796 796 797 797 797 798 798 798 798 798 798 798 798 798 798 797 797 797 796 796 796 795 795 794 794 794 794 793 793 793 793 793
698 704 717 731 739 744 757 760 753 762 776 776 754 743 768 784 764 747 744 743 739 733 732 731 727 727 727 727 730 731 734 737 739 743 746 750 754 757 761 763 765 768 770 773 775 776 779 780 781 783 784 786 787 788 790 791 791 792 792 793 793 793 794 795 795 796 796 797 797 798 798 798 799 799 799 799 799 799 799 799 799 798 798 797 797 796 796 796 795 795 795 794 794 794 794 794 793
699 714 721 738 752 754 762 758 753 775 781 762 745 740 762 782 762 741 738 732 727 728 730 730 726 725 725 725 727 728 732 735 739 743 745 749 754 756 760 762 763 767 770 771 773 775 777 779 781 782 784 785 787 788 789 790 791 792 792 793 793 793 794 795 795 796 796 797 798 798 799 799 799 800 800 800 800 800 800 800 800 799 799 798 798 797 797 796 796 795 795 795 794 794 794 794 794
704 719 727 751 775 779 784 775 766 776 766 748 750 749 756 762 742 729 732 727 720 719 719 721 722 722 724 724 725 726 730 734 738 742 746 749 753 755 758 761 763 766 769 770 772 774 776 778 780 781 783 784 786 787 788 789 790 791 792 792 793 793 794 795 795 796 796 797 798 799 799 800 800 800 801 801 801 802 801 801 801 800 800 799 799 798 797 796 796 795 795 795 794 794 794 794 793
711 723 734 758 783 798 804 788 777 777 757 738 748 758 757 748 729 718 720 718 712 710 710 712 715 718 722 721 722 726 729 733 737 740 746 749 751 754 757 759 762 765 768 769 770 772 774 777 779 781 782 783 785 786 788 789 790 791 792 792 793 794 794 794 795 796 797 798 798 799 800 800 801 801 802 802 802 803 802 802 802 801 801 800 799 798 797 797 796 796 795 795 795 794 794 794 794
714 714 725 749 767 782 787 780 781 784 765 741 744 767 770 748 723 706 703 705 704 705 704 706 710 714 718 718 719 725 728 731 735 738 744 748 749 753 755 758 762 764 766 768 769 771 773 775 778 779 781 783 784 786 787 788 789 790 791 792 793 793 794 795 795 796 797 798 798 799 800 800 801 802 802 803 803 803 802 802 801 801 801 800 800 799 798 797 797 796 796 795 795 795 795 794 794
715 709 726 744 743 747 757 762 764 767 768 753 743 756 753 729 710 696 696 700 700 703 704 704 712 713 715 719 719 723 727 728 733 738 743 746 748 752 754 757 761 763 765 767 768 770 772 774 776 778 780 782 783 785 786 787 789 790 791 792 792 793 794 795 796 797 797 798 799 799 800 801 801 802 802 803 803 802 802 801 801 801 800 800 800 799 799 798 797 797 797 796 796 796 796 795 795
718 721 737 733 717 725 748 758 751 753 769 758 740 746 738 726 718 699 696 705 703 706 708 707 712 714 716 719 719 722 725 726 731 737 741 745 747 751 753 756 759 761 764 766 767 769 771 773 775 777 779 781 782 784 785 787 788 789 790 791 792 793 794 795 795 797 797 798 799 799 800 801 801 802 802 802 802 802 802 801 801 801 801 801 801 800 800 799 798 798 797 797 797 797 797 796 796
717 728 726 719 716 722 739 759 759 760 771 759 749 757 749 743 737 711 702 711 709 709 711 709 712 715 717 718 718 720 721 724 730 734 739 743 746 749 752 754 757 759 762 764 767 769 770 772 774 776 778 779 781 783 784 786 787 788 789 790 791 792 793 794 795 796 797 798 799 799 800 800 801 802 802 802 803 802 802 802 802 802 801 801 801 801 801 800 799 799 799 798 798 798 798 797 798
702 710 701 715 742 741 738 757 765 767 774 766 760 761 751 745 739 720 712 713 711 710 710 712 714 715 717 716 717 719 719 723 728 732 737 741 744 748 750 753 755 757 761 763 765 768 769 772 773 775 777 778 780 781 783 785 786 787 789 789 791 792 792 794 794 796 797 797 798 799 799 800 800 801 802 802 803 803 802 802 802 802 802 802 802 802 801 801 800 800 800 800 799 799 799 799 799
691 698 696 705 727 732 731 741 750 759 770 769 765 763 754 739 725 718 715 709 708 711 711 713 715 714 715 714 716 718 719 723 726 731 736 739 742 746 747 751 753 755 759 761 764 766 768 770 772 773 776 777 779 780 781 783 785 786 787 788 790 791 792 793 794 795 796 796 797 798 799 799 800 801 802 802 803 803 803 803 802 803 803 803 803 803 802 802 801 801 801 801 801 801 801 801 801
702 709 710 707 712 719 727 732 732 742 756 765 771 770 751 725 711 713 715 707 703 706 708 711 712 712 713 712 714 717 718 721 723 728 734 737 740 743 746 749 751 753 757 759 762 764 766 768 770 772 774 775 777 779 780 782 783 785 786 787 789 790 791 792 793 794 795 796 797 797 798 799 799 801 801 802 803 803 803 803 803 803 803 803 803 803 803 803 803 803 802 802 802 802 802 802 802
699 705 710 713 717 727 745 752 738 733 746 757 768 770 746 716 707 710 710 706 701 699 703 707 708 710 711 712 714 715 717 720 721 725 730 734 738 741 744 748 749 752 754 757 760 762 764 766 768 770 772 773 775 777 778 780 781 783 785 786 787 789 790 791 792 793 794 795 796 796 797 798 799 800 801 801 802 802 803 803 803 803 804 804 804 804 804 804 804 804 804 804 804 803 803 803 803